This demonstration page uses our WeatherBlox Daily Observations layout. Learn more.

Left ArrowRight Arrow

38.88101, -77.10428

Hourly Observations for October 9, 2022

Temp ( °F °C ) Dew Point ( °F °C ) Humidity (%) Winds ( mph kmh ) Pressure ( in mb ) Visibility ( mi km ) Precip ( " mm )
12:52 am 00:52 Clear 47 8.3 39 3.9 74 74 WSW 7 11 30.27 1025 10 16 0.00 0.00
1:52 am 01:52 Clear 48 8.9 39 3.9 71 71 Calm 30.27 1025 10 16 0.00 0.00
2:52 am 02:52 Clear 47 8.3 37 2.8 68 68 Calm 30.26 1025 10 16 0.00 0.00
3:52 am 03:52 Clear 45 7.2 39 3.9 80 80 WSW 3 6 30.25 1024 10 16 0.00 0.00
4:52 am 04:52 Clear 43 6.1 38 3.3 82 82 SW 6 9 30.25 1024 10 16 0.00 0.00
5:52 am 05:52 Clear 43 6.1 38 3.3 82 82 SW 3 6 30.26 1025 10 16 0.00 0.00
6:52 am 06:52 Clear 42 5.6 37 2.8 82 82 SSW 5 7 30.26 1025 10 16 0.00 0.00
7:52 am 07:52 Sunny 45 7.2 38 3.3 76 76 Calm 30.27 1025 10 16 0.00 0.00
8:52 am 08:52 Sunny 49 9.4 40 4.4 71 71 S 6 9 30.29 1026 10 16 0.00 0.00
9:52 am 09:52 Sunny 54 12.2 42 5.6 64 64 S 7 11 30.29 1026 10 16 0.00 0.00
10:52 am 10:52 Mostly Sunny 60 15.6 36 2.2 40 40 WNW 10 17 30.28 1025 10 16 0.00 0.00
11:52 am 11:52 Mostly Sunny 62 16.7 34 1.1 35 35 W 12 19 30.26 1025 10 16 0.00 0.00
12:52 pm 12:52 Mostly Sunny 63 17.2 36 2.2 36 36 WNW 8 13 30.24 1024 10 16 0.00 0.00
1:52 pm 13:52 Mostly Sunny 64 17.8 35 1.7 34 34 W 7 11 30.21 1023 10 16 0.00 0.00
2:52 pm 14:52 Sunny 65 18.3 35 1.7 33 33 W 10 17 30.19 1022 10 16 0.00 0.00
3:52 pm 15:52 Sunny 65 18.3 35 1.7 33 33 W 7 11 30.17 1022 10 16 0.00 0.00
4:52 pm 16:52 Sunny 65 18.3 35 1.7 33 33 W 9 15 30.16 1021 10 16 0.00 0.00
5:52 pm 17:52 Mostly Sunny 64 17.8 35 1.7 34 34 W 8 13 30.16 1022 10 16 0.00 0.00
6:52 pm 18:52 Mostly Clear 61 16.1 36 2.2 39 39 SSW 6 9 30.18 1022 10 16 0.00 0.00
7:52 pm 19:52 Clear 58 14.4 38 3.3 47 47 SSW 5 7 30.19 1023 10 16 0.00 0.00
8:52 pm 20:52 Clear 56 13.3 44 6.7 64 64 SSW 3 6 30.21 1023 10 16 0.00 0.00
9:52 pm 21:52 Clear 54 12.2 43 6.1 66 66 SW 3 6 30.22 1023 10 16 0.00 0.00
10:52 pm 22:52 Clear 52 11.1 43 6.1 71 71 S 3 6 30.22 1023 10 16 0.00 0.00
11:52 pm 23:52 Clear 51 10.6 42 5.6 71 71 WSW 5 7 30.22 1023 10 16 0.00 0.00

Powered by AerisWeather